Current weather by "City, St" or "zip code"  
 

Current Conditions: Shelbyville Municipal Airport, IN

Light Rain


47.0 F

Last Updated on Oct 29 2020, 5:53 pm EDT
Humidity: 71%
Wind Speed: N 16.1 G 23.0 mph
Barometer 29.75 in
Dewpoint: 37.9 F
Visibility: 10.00 mi
Precip: 00.01 in
Heat Index: NA
Wind Chill: 41 F
Current conditions at:

Shelbyville Municipal Airport, IN (KGEZ)

Lat: 39.58546 Lon: 85.79982

Local Radar Image active severe weather and emergency alerts image image weather storm and storm spotter reports image weather observation monitoring service image
Local
Radar
Active
Alerts
Storm Reports Obs
Monitoring

Sign-up For Email & Text Message Weather Alert Notification Services



Advertise Here

Observation History for Shelbyville Municipal Airport, IN


Time Wind
(mph)
Vis
(mi)
Weather Precip (in) Temperature (F) Relative
Humidity
Wind
Chill
(F)
Heat
Index
(F)
Pressure
Air Dwpt altimeter
(in)
sea level
(mb)
Rmks
5:53 pm EDT N 16.1 G 23.0 10.00 Light Rain 00.01 47.0 37.9 71% 41 NA 29.75 1007.4
4:53 pm EDT N 9.2 10.00 Light Rain 00.02 48.0 41.0 77% 44 NA 29.73 1006.8
3:53 pm EDT N 10.4 G 19.6 10.00 Light Rain 00.01 49.0 42.1 77% 45 NA 29.70 1005.9
2:53 pm EDT N 15.0 G 24.2 8.00 Overcast Trace 48.0 42.1 80% 42 NA 29.70 1005.8
1:53 pm EDT N 11.5 8.00 Overcast Trace 49.0 43.0 80% 44 NA 29.68 1005.0
12:53 pm EDT N 10.4 10.00 Overcast -- 49.0 44.1 83% 45 NA 29.70 1005.9
11:53 am EDT N 12.7 G 23.0 10.00 Overcast 00.01 49.0 43.0 80% 44 NA 29.70 1005.7
10:53 am EDT NE 12.7 G 26.5 7.00 Light Rain 00.01 48.0 43.0 83% 43 NA 29.67 1004.7
9:53 am EDT NE 15.0 G 26.5 10.00 Light Rain 00.05 48.0 42.1 80% 42 NA 29.69 1005.4
8:53 am EDT NE 15.0 G 27.6 8.00 Light Rain 00.09 48.0 42.1 80% 42 NA 29.68 1005.1
7:53 am EDT N 11.5 5.00 Rain 00.20 50.0 45.0 83% 46 NA 29.68 1005.1
6:53 am EDT N 12.7 4.00 Rain 00.22 51.0 46.0 83% 46 NA 29.69 1005.5
5:53 am EDT N 11.5 5.00 Rain -- 52.0 46.9 83% 48 NA 29.71 1006.2
4:53 am EDT N 12.7 5.00 Rain Fog/Mist 00.14 52.0 48.0 86% 48 NA 29.71 1005.9
3:53 am EDT NE 10.4 4.00 Rain Fog/Mist 00.11 52.0 48.0 86% 48 NA 29.76 1007.6
1:53 am EDT E 3.5 5.00 Light Rain Fog/Mist 00.14 52.0 48.0 86% NA NA 29.82 1009.9
12:53 am EDT NE 4.6 6.00 Rain Fog/Mist 00.04 52.0 48.0 86% 51 NA 29.84 1010.4
11:53 pm EDT NE 5.8 10.00 Light Rain 00.01 52.0 46.9 83% 50 NA 29.89 1012.1
10:53 pm EDT E 3.5 10.00 Overcast -- 52.0 46.9 83% NA NA 29.92 1013.3
9:53 pm EDT NE 4.6 10.00 Mostly Cloudy -- 52.0 46.9 83% 51 NA 29.93 1013.5
8:53 pm EDT NE 3.5 10.00 Overcast -- 52.0 46.0 80% NA NA 29.96 1014.6
7:53 pm EDT SE 3.5 10.00 Fair -- 52.0 46.0 80% NA NA 29.97 1014.9
6:53 pm EDT NE 4.6 10.00 Overcast -- 53.0 46.0 77% 52 NA 29.99 1015.6

Regional Weather Observation


Indianapolis International Airport, IN (KIND)

Light Rain
47.0 F

Shelbyville Municipal Airport, IN (KGEZ)

Light Rain
47.0 F

Columbus / Bakalar, IN (KBAK)

Light Rain Fog/Mist
46.0 F

INDIANAPOLIS, IN (KTYQ)

Mostly Cloudy
47.0 F

Anderson Municipal Airport, IN (KAID)

Light Drizzle
45.0 F

Bloomington, Monroe County Airport, IN (KBMG)

Light Rain
46.0 F